| time (UTC) | temp C | wind direction | speed KPH | gust KPH | rain 1hr cm | rain 24hr cm | rain mn cm | humidity % | barometer mb |
| 20260906023005 | 24 | 209 | 0.0 | 3.2 | 0.00 | 0.00 | 0.00 | 80 | 1008.0 |
| 20260906022004 | 25 | 98 | 0.0 | 1.6 | 0.00 | 0.00 | 0.00 | 78 | 1007.8 |
| 20260906021004 | 25 | 98 | 0.0 | 1.6 | 0.00 | 0.00 | 0.00 | 77 | 1007.9 |
| 20260906015004 | 25 | 98 | 1.6 | 3.2 | 0.00 | 0.00 | 0.00 | 75 | 1007.4 |
| 20260906014004 | 25 | 116 | 1.6 | 3.2 | 0.00 | 0.00 | 0.00 | 73 | 1007.2 |
| 20260906013004 | 26 | 116 | 0.0 | 1.6 | 0.00 | 0.00 | 0.00 | 71 | 1007.2 |
| 20260906011004 | 26 | 116 | 0.0 | 1.6 | 0.00 | 0.00 | 0.00 | 67 | 1007.3 |
| 20260906005004 | 26 | 151 | 0.0 | 4.8 | 0.00 | 0.00 | 0.00 | 68 | 1007.5 |
| 20260906004004 | 27 | 112 | 3.2 | 4.8 | 0.00 | 0.00 | 0.00 | 66 | 1007.5 |
| 20260906003004 | 27 | 146 | 0.0 | 3.2 | 0.00 | 0.00 | 0.00 | 64 | 1007.5 |
| 20260906001004 | 27 | 104 | 1.6 | 3.2 | 0.00 | 0.00 | 0.00 | 64 | 1007.5 |
| 20260906000003 | 28 | 104 | 1.6 | 3.2 | 0.00 | 0.00 | 0.00 | 63 | 1007.7 |
| 20260905235004 | 28 | 104 | 1.6 | 3.2 | 0.00 | 0.00 | 0.00 | 61 | 1007.8 |
| 20260905234004 | 29 | 160 | 1.6 | 4.8 | 0.00 | 0.00 | 0.00 | 58 | 1007.9 |
| 20260905233004 | 30 | 72 | 1.6 | 4.8 | 0.00 | 0.00 | 0.00 | 57 | 1007.8 |
| 20260905232004 | 31 | 355 | 1.6 | 14.5 | 0.00 | 0.00 | 0.00 | 57 | 1007.7 |
| 20260905225004 | 33 | 33 | 3.2 | 4.8 | 0.00 | 0.00 | 0.00 | 51 | 1007.5 |
| 20260905224004 | 33 | 0 | 0.0 | 4.8 | 0.00 | 0.00 | 0.00 | 51 | 1007.5 |
| 20260905223004 | 33 | 55 | 1.6 | 4.8 | 0.00 | 0.00 | 0.00 | 52 | 1007.4 |
| 20260905222004 | 33 | 221 | 3.2 | 11.3 | 0.00 | 0.00 | 0.00 | 51 | 1007.4 |
| 20260905221004 | 33 | 311 | 1.6 | 4.8 | 0.00 | 0.00 | 0.00 | 49 | 1007.5 |
| 20260905220004 | 33 | 328 | 1.6 | 4.8 | 0.00 | 0.00 | 0.00 | 47 | 1007.4 |
| 20260905215004 | 33 | 270 | 3.2 | 4.8 | 0.00 | 0.00 | 0.00 | 47 | 1007.4 |
| 20260905213003 | 34 | 344 | 4.8 | 9.7 | 0.00 | 0.00 | 0.00 | 45 | 1007.3 |
| 20260905211004 | 35 | 255 | 3.2 | 11.3 | 0.00 | 0.00 | 0.00 | 45 | 1007.5 |
| 20260905210003 | 34 | 287 | 3.2 | 9.7 | 0.00 | 0.00 | 0.00 | 46 | 1007.5 |
| 20260905204004 | 35 | 14 | 3.2 | 4.8 | 0.00 | 0.00 | 0.00 | 48 | 1007.6 |
| 20260905203004 | 33 | 182 | 1.6 | 4.8 | 0.00 | 0.00 | 0.00 | 52 | 1007.8 |
| 20260905202004 | 33 | 14 | 4.8 | 9.7 | 0.00 | 0.00 | 0.00 | 52 | 1007.9 |
| 20260905201003 | 33 | 17 | 4.8 | 19.3 | 0.00 | 0.00 | 0.00 | 52 | 1008.0 |
| 20260905195004 | 33 | 235 | 1.6 | 4.8 | 0.00 | 0.00 | 0.00 | 54 | 1008.4 |
| 20260905194004 | 33 | 207 | 1.6 | 4.8 | 0.00 | 0.00 | 0.00 | 53 | 1008.5 |
| 20260905193004 | 33 | 174 | 1.6 | 4.8 | 0.00 | 0.00 | 0.00 | 53 | 1008.6 |
| 20260905192004 | 33 | 128 | 1.6 | 4.8 | 0.00 | 0.00 | 0.00 | 51 | 1008.8 |
| 20260905191003 | 33 | 108 | 3.2 | 4.8 | 0.00 | 0.00 | 0.00 | 53 | 1008.8 |
| 20260905190003 | 33 | 86 | 1.6 | 4.8 | 0.00 | 0.00 | 0.00 | 55 | 1009.0 |
| 20260905185004 | 33 | 349 | 3.2 | 4.8 | 0.00 | 0.00 | 0.00 | 53 | 1009.1 |
| 20260905183003 | 33 | 68 | 3.2 | 4.8 | 0.00 | 0.00 | 0.00 | 54 | 1009.2 |
| 20260905182004 | 33 | 173 | 3.2 | 4.8 | 0.00 | 0.00 | 0.00 | 54 | 1009.5 |
| 20260905181004 | 33 | 43 | 1.6 | 4.8 | 0.00 | 0.00 | 0.00 | 52 | 1009.5 |
| 20260905180003 | 33 | 168 | 3.2 | 4.8 | 0.00 | 0.00 | 0.00 | 56 | 1009.6 |
| 20260905175003 | 32 | 345 | 3.2 | 4.8 | 0.00 | 0.00 | 0.00 | 57 | 1009.9 |
| 20260905174004 | 33 | 356 | 3.2 | 4.8 | 0.00 | 0.00 | 0.00 | 56 | 1010.1 |
| 20260905173004 | 33 | 118 | 3.2 | 8.0 | 0.00 | 0.00 | 0.00 | 54 | 1010.1 |
| 20260905172003 | 32 | 106 | 3.2 | 8.0 | 0.00 | 0.00 | 0.00 | 55 | 1010.1 |
| 20260905171004 | 32 | 42 | 1.6 | 4.8 | 0.00 | 0.00 | 0.00 | 60 | 1010.1 |
| 20260905170004 | 32 | 21 | 3.2 | 4.8 | 0.00 | 0.00 | 0.00 | 60 | 1010.1 |
| 20260905164003 | 31 | 20 | 3.2 | 4.8 | 0.00 | 0.00 | 0.00 | 60 | 1010.1 |
| 20260905162003 | 30 | 216 | 3.2 | 4.8 | 0.00 | 0.00 | 0.00 | 65 | 1010.5 |
| 20260905161003 | 30 | 3 | 3.2 | 4.8 | 0.00 | 0.00 | 0.00 | 64 | 1010.6 |
| 20260905160004 | 30 | 62 | 3.2 | 8.0 | 0.00 | 0.00 | 0.00 | 64 | 1010.6 |
| 20260905155003 | 30 | 9 | 1.6 | 4.8 | 0.00 | 0.00 | 0.00 | 66 | 1010.6 |
| 20260905154004 | 30 | 17 | 1.6 | 9.7 | 0.00 | 0.00 | 0.00 | 65 | 1010.7 |
| 20260905151004 | 29 | 15 | 3.2 | 11.3 | 0.00 | 0.00 | 0.00 | 67 | 1011.0 |
| 20260905150005 | 29 | 33 | 1.6 | 8.0 | 0.00 | 0.00 | 0.00 | 70 | 1010.9 |
| 20260905145005 | 28 | 105 | 3.2 | 12.9 | 0.00 | 0.00 | 0.00 | 71 | 1010.9 |
| 20260905144005 | 28 | 358 | 4.8 | 12.9 | 0.00 | 0.00 | 0.00 | 77 | 1011.0 |
| 20260905143004 | 27 | 19 | 3.2 | 4.8 | 0.00 | 0.00 | 0.00 | 77 | 1010.6 |
| 20260905142004 | 27 | 307 | 1.6 | 4.8 | 0.00 | 0.00 | 0.00 | 80 | 1010.6 |
| 20260905141005 | 26 | 198 | 1.6 | 8.0 | 0.00 | 0.00 | 0.00 | 79 | 1010.6 |
| 20260905140005 | 26 | 240 | 3.2 | 8.0 | 0.00 | 0.00 | 0.00 | 82 | 1010.5 |
| 20260905135005 | 26 | 269 | 3.2 | 4.8 | 0.00 | 0.00 | 0.00 | 84 | 1010.6 |
| 20260905134005 | 26 | 233 | 3.2 | 4.8 | 0.00 | 0.00 | 0.00 | 87 | 1010.6 |
| 20260905133004 | 25 | 258 | 3.2 | 4.8 | 0.00 | 0.00 | 0.00 | 88 | 1010.6 |
| 20260905132004 | 25 | 249 | 1.6 | 3.2 | 0.00 | 0.00 | 0.00 | 90 | 1010.6 |
| 20260905131004 | 25 | 248 | 3.2 | 4.8 | 0.00 | 0.00 | 0.00 | 92 | 1010.6 |
| 20260905130005 | 25 | 247 | 3.2 | 4.8 | 0.00 | 0.00 | 0.00 | 95 | 1010.7 |
| 20260905125005 | 24 | 265 | 3.2 | 8.0 | 0.00 | 0.00 | 0.00 | 98 | 1010.7 |
| 20260905124005 | 23 | 273 | 1.6 | 3.2 | 0.00 | 0.00 | 0.00 | 100 | 1010.7 |
| 20260905123005 | 23 | 260 | 1.6 | 4.8 | 0.00 | 0.00 | 0.00 | 100 | 1010.7 |
| 20260905122005 | 23 | 243 | 3.2 | 3.2 | 0.00 | 0.00 | 0.00 | 100 | 1010.6 |
| 20260905121005 | 22 | 30 | 0.0 | 1.6 | 0.00 | 0.00 | 0.00 | 100 | 1010.6 |
| 20260905120004 | 22 | 30 | 1.6 | 1.6 | 0.00 | 0.00 | 0.00 | 100 | 1010.6 |
| 20260905115005 | 22 | 30 | 0.0 | 1.6 | 0.00 | 0.00 | 0.00 | 100 | 1010.5 |
| 20260905114005 | 22 | 30 | 0.0 | 1.6 | 0.00 | 0.00 | 0.00 | 100 | 1010.3 |
| 20260905113004 | 22 | 30 | 1.6 | 1.6 | 0.00 | 0.00 | 0.00 | 100 | 1010.1 |
| 20260905112005 | 22 | 30 | 0.0 | 1.6 | 0.00 | 0.00 | 0.00 | 100 | 1010.0 |
| 20260905111004 | 22 | 30 | 0.0 | 1.6 | 0.00 | 0.00 | 0.00 | 100 | 1010.1 |
| 20260905105004 | 22 | 30 | 0.0 | 1.6 | 0.00 | 0.00 | 0.00 | 100 | 1009.8 |
| 20260905104004 | 22 | 30 | 1.6 | 3.2 | 0.00 | 0.00 | 0.00 | 100 | 1009.8 |
| 20260905101004 | 22 | 30 | 0.0 | 3.2 | 0.00 | 0.00 | 0.00 | 100 | 1009.6 |
| 20260905100004 | 22 | 30 | 1.6 | 1.6 | 0.00 | 0.00 | 0.00 | 100 | 1009.4 |
| 20260905094004 | 22 | 30 | 0.0 | 1.6 | 0.00 | 0.00 | 0.00 | 100 | 1009.3 |
| 20260905093004 | 22 | 30 | 0.0 | 3.2 | 0.00 | 0.00 | 0.00 | 100 | 1009.3 |
| 20260905092004 | 22 | 30 | 1.6 | 3.2 | 0.00 | 0.00 | 0.00 | 100 | 1009.4 |
| 20260905091005 | 22 | 176 | 1.6 | 3.2 | 0.00 | 0.00 | 0.00 | 99 | 1009.3 |
| 20260905085005 | 22 | 176 | 0.0 | 3.2 | 0.00 | 0.00 | 0.00 | 99 | 1009.1 |
| 20260905084004 | 22 | 176 | 1.6 | 3.2 | 0.00 | 0.00 | 0.00 | 99 | 1009.1 |
| 20260905083004 | 22 | 176 | 0.0 | 1.6 | 0.00 | 0.00 | 0.00 | 99 | 1009.1 |
| 20260905082005 | 22 | 176 | 0.0 | 0.0 | 0.00 | 0.00 | 0.00 | 99 | 1009.1 |
| 20260905081004 | 22 | 176 | 0.0 | 3.2 | 0.00 | 0.00 | 0.00 | 98 | 1009.4 |
| 20260905080004 | 22 | 83 | 1.6 | 3.2 | 0.00 | 0.00 | 0.00 | 97 | 1009.4 |
| 20260905075004 | 22 | 79 | 1.6 | 3.2 | 0.00 | 0.00 | 0.00 | 97 | 1009.5 |
| 20260905073005 | 23 | 79 | 0.0 | 0.0 | 0.00 | 0.00 | 0.00 | 97 | 1009.6 |
| 20260905072005 | 23 | 79 | 0.0 | 1.6 | 0.00 | 0.00 | 0.00 | 97 | 1009.6 |
| 20260905071005 | 23 | 79 | 0.0 | 0.0 | 0.00 | 0.00 | 0.00 | 97 | 1009.7 |
| 20260905070004 | 23 | 79 | 0.0 | 1.6 | 0.00 | 0.00 | 0.00 | 96 | 1009.8 |
| 20260905065004 | 23 | 79 | 0.0 | 1.6 | 0.00 | 0.00 | 0.00 | 96 | 1010.0 |
| 20260905064004 | 23 | 79 | 0.0 | 0.0 | 0.00 | 0.00 | 0.00 | 96 | 1010.1 |
| 20260905063004 | 23 | 79 | 0.0 | 1.6 | 0.00 | 0.00 | 0.00 | 95 | 1010.2 |
| 20260905062004 | 23 | 79 | 1.6 | 3.2 | 0.00 | 0.00 | 0.00 | 95 | 1010.3 |
| 20260905061004 | 23 | 79 | 1.6 | 3.2 | 0.00 | 0.00 | 0.00 | 95 | 1010.3 |
| 20260905060004 | 23 | 79 | 0.0 | 1.6 | 0.00 | 0.00 | 0.00 | 94 | 1010.3 |
| 20260905055004 | 23 | 79 | 0.0 | 3.2 | 0.00 | 0.00 | 0.00 | 94 | 1010.5 |
| 20260905054004 | 23 | 79 | 1.6 | 1.6 | 0.00 | 0.00 | 0.00 | 94 | 1010.6 |
| 20260905053005 | 23 | 101 | 0.0 | 1.6 | 0.00 | 0.00 | 0.00 | 93 | 1010.6 |
| 20260905052005 | 24 | 101 | 0.0 | 1.6 | 0.00 | 0.00 | 0.00 | 93 | 1010.6 |
| 20260905051004 | 24 | 101 | 0.0 | 1.6 | 0.00 | 0.00 | 0.00 | 94 | 1010.5 |
| 20260905050004 | 24 | 101 | 0.0 | 3.2 | 0.00 | 0.00 | 0.00 | 94 | 1010.5 |
| 20260905045005 | 24 | 57 | 1.6 | 3.2 | 0.00 | 0.00 | 0.00 | 94 | 1010.5 |
| 20260905043004 | 24 | 57 | 0.0 | 3.2 | 0.00 | 0.00 | 0.00 | 94 | 1010.5 |
| 20260905042004 | 24 | 57 | 0.0 | 1.6 | 0.00 | 0.00 | 0.00 | 93 | 1010.4 |
| 20260905040004 | 24 | 57 | 0.0 | 3.2 | 0.00 | 0.00 | 0.00 | 92 | 1010.6 |
| 20260905035005 | 25 | 80 | 1.6 | 3.2 | 0.00 | 0.00 | 0.00 | 92 | 1010.5 |
| 20260905034004 | 24 | 34 | 0.0 | 1.6 | 0.00 | 0.00 | 0.00 | 91 | 1010.3 |
| 20260905033004 | 25 | 34 | 0.0 | 0.0 | 0.00 | 0.00 | 0.00 | 91 | 1010.5 |
| 20260905032004 | 25 | 34 | 0.0 | 1.6 | 0.00 | 0.00 | 0.00 | 90 | 1010.4 |
| 20260905031004 | 25 | 34 | 1.6 | 3.2 | 0.00 | 0.00 | 0.00 | 89 | 1010.6 |
| 20260905030004 | 25 | 34 | 0.0 | 1.6 | 0.00 | 0.00 | 0.00 | 87 | 1010.6 |
| 20260905025004 | 25 | 34 | 0.0 | 0.0 | 0.00 | 0.00 | 0.00 | 87 | 1010.5 |
| 20260905024004 | 25 | 34 | 0.0 | 1.6 | 0.00 | 0.00 | 0.00 | 86 | 1010.4 |